GOES 19

Last updated on Thu Jul 03 2025 00:02:22 GMT+0000 (Coordinated Universal Time)

1 60133U 24119A 25183.55167810 -.00000240 00000+0 00000+0 0 9997 2 60133 0.0393 177.9043 0000174 37.9103 188.4134 1.00272143 3457
UTC large
Height (km)
Speed (km/s)
/
Latitude / Longitude
Inclination (degrees)
Orbital Period (minutes)
Azimuth
Elevation
Range (km)
Doppler Factor

Next 0 passes for location: London (51.5072 / 0.1276)

Sorry there are no passes over London.